Location: Northcutt
(34.7304°N, 84.4305°W)
Time: 05:10:50
(UTC+00:00)

Vanguard 2 - Pass Details

Date: 09 October 2022
Orbit: 553 x 2933 km, 32.9° (Epoch: 05 December)

Event Time Altitude Azimuth Distance (km) Brightness Sun altitude
Rises 20:38:55 0° 279° (W) 4,969 12.3 28.5°
Reaches altitude 10° 20:41:44 10° 277° (W) 4,248 12.2 28.0°
Maximum altitude 20:54:07 69° 197° (SSW) 2,648 10.9 25.8°
Drops below altitude 10° 21:11:37 10° 119° (ESE) 5,756 11.7 22.6°
Sets 21:16:10 0° 117° (ESE) 6,760 12.0 21.7°
